Fairbanks, AK

7:03 PM AKST on February 20, 2018 (GMT -0900)
Fairbanks International

Weather History for PAFA - October, 2011

Change the Weather History Date:

Friday, October 7, 2011

  Actual Average Record
Temperature  
Mean Temperature 38 °F 32 °F  
Max Temperature 46 °F 40 °F 65 °F (1969)
Min Temperature 29 °F 24 °F -1 °F (1928)
Degree Days  
Heating Degree Days 27 33  
Month to date heating degree days 178 216  
Since 1 July heating degree days 993 1210  
Cooling Degree Days 0 0  
Month to date cooling degree days 0 0  
Year to date cooling degree days 39 61  
Moisture  
Dew Point 29 °F    
Average Humidity 74    
Maximum Humidity 88    
Minimum Humidity 56    
Precipitation  
Precipitation 0.00 in 0.03 in 0.21 in (1989)
Month to date precipitation T 0.20  
Year to date precipitation 7.81 8.87  
Snow  
Snow 0.00 in 0.20 in 2.20 in (1907)
Month to date snowfall T 1.5  
Since 1 July snowfall T 3.3  
Since 1 September snowfall T 3.3  
Snow Depth 0.00 in    
Sea Level Pressure  
Sea Level Pressure 29.69 in    
Wind  
Wind Speed 1 mph (South)    
Max Wind Speed 6 mph    
Max Gust Speed -    
Visibility 10 miles    
Events      
T = Trace of Precipitation, MM = Missing Value Source: NWS Daily Summary

Daily Weather History Graph

Daily Weather History Graph

Search for Another Location

Airport or City:

Trip Planner

Search our weather history database for the weather conditions in past years. The results will help you decide how hot, cold, wet, or windy it might be!

Date:

Astronomy

Oct. 07, 2011 Rise Set
Actual Time 8:18 AM AKDT 6:58 PM AKDT
Civil Twilight 7:29 AM AKDT 7:46 PM AKDT
Nautical Twilight 6:32 AM AKDT 8:43 PM AKDT
Astronomical Twilight 5:32 AM AKDT 9:43 PM AKDT
Moon 5:48 PM AKDT (10/7) 2:57 AM AKDT (10/7)
Length of Visible Light 12h 16m
Length of Day
10h 39m
Waxing Gibbous, 84% of the Moon is Illuminated
Oct 7
Waxing Gibbous
Oct 11
Full
Oct 19
Last Quarter
Oct 26
New
Nov 2
First Quarter

Hourly Weather History & Observations

Time (AKDT) Temp. Windchill Dew Point Humidity Pressure Visibility Wind Dir Wind Speed Gust Speed Precip Events Conditions
12:53 AM 37.9 °F 34.4 °F 27.0 °F 65% 29.52 in 10.0 mi SSE 4.6 mph - N/A   Mostly Cloudy
1:53 AM 37.0 °F - 28.0 °F 70% 29.54 in 10.0 mi Calm Calm - N/A   Mostly Cloudy
2:53 AM 36.0 °F - 28.0 °F 73% 29.56 in 10.0 mi Calm Calm - N/A   Mostly Cloudy
3:53 AM 35.1 °F - 28.0 °F 76% 29.57 in 10.0 mi Calm Calm - N/A   Mostly Cloudy
4:53 AM 33.1 °F - 28.0 °F 82% 29.60 in 10.0 mi Calm Calm - N/A   Mostly Cloudy
5:53 AM 32.0 °F - 28.0 °F 85% 29.61 in 10.0 mi Calm Calm - N/A   Mostly Cloudy
6:53 AM 32.0 °F - 27.0 °F 82% 29.63 in 10.0 mi Calm Calm - N/A   Overcast
7:53 AM 30.9 °F - 27.0 °F 85% 29.65 in 10.0 mi Calm Calm - N/A   Overcast
8:53 AM 30.0 °F - 27.0 °F 88% 29.66 in 10.0 mi Calm Calm - N/A   Mostly Cloudy
9:53 AM 32.0 °F - 28.9 °F 88% 29.68 in 10.0 mi Calm Calm - N/A   Mostly Cloudy
10:53 AM 36.0 °F - 28.9 °F 76% 29.70 in 10.0 mi Calm Calm - N/A   Mostly Cloudy
11:53 AM 39.0 °F - 28.9 °F 67% 29.72 in 10.0 mi Calm Calm - N/A   Mostly Cloudy
12:53 PM 41.0 °F - 30.0 °F 65% 29.73 in 10.0 mi Calm Calm - N/A   Mostly Cloudy
1:53 PM 39.9 °F - 30.0 °F 68% 29.74 in 10.0 mi Calm Calm - N/A   Mostly Cloudy
2:53 PM 41.0 °F - 30.0 °F 65% 29.75 in 10.0 mi Calm Calm - N/A   Mostly Cloudy
3:53 PM 44.1 °F - 30.0 °F 58% 29.75 in 10.0 mi Calm Calm - N/A   Mostly Cloudy
4:53 PM 45.0 °F - 30.0 °F 56% 29.75 in 10.0 mi Calm Calm - N/A   Mostly Cloudy
5:53 PM 43.0 °F - 30.0 °F 60% 29.76 in 10.0 mi Calm Calm - N/A   Mostly Cloudy
6:53 PM 39.9 °F 37.8 °F 30.9 °F 70% 29.76 in 10.0 mi South 3.5 mph - N/A   Mostly Cloudy
7:53 PM 37.9 °F 35.5 °F 30.0 °F 73% 29.78 in 10.0 mi South 3.5 mph - N/A   Mostly Cloudy
8:53 PM 37.0 °F - 32.0 °F 82% 29.79 in 10.0 mi Calm Calm - N/A   Mostly Cloudy
9:53 PM 37.0 °F - 30.9 °F 79% 29.80 in 10.0 mi Calm Calm - N/A   Mostly Cloudy
10:53 PM 37.0 °F 32.4 °F 30.0 °F 76% 29.80 in 10.0 mi NNE 5.8 mph - N/A   Mostly Cloudy
11:53 PM 37.0 °F - 30.0 °F 76% 29.81 in 10.0 mi Calm Calm - N/A   Mostly Cloudy